Location: Melbourne
(37.8170°S, 144.9670°E)
Time: 02:31:17
(UTC+10:00)

deb Explorer IX - All Passes

Search period start: 31 May 2015 00:00
Search period end: 10 June 2015 00:00
Orbit: 548 x 1154 km, 38.8° (Epoch: 28 May)

Date Brightness Start Highest point End Pass type
(mag) Time Alt. Az. Time Alt. Az. Time Alt. Az.
31 May - 00:52:22 10° NW 00:57:33 49° NNE 01:03:45 10° E night (unlit)
31 May - 02:39:16 10° W 02:45:15 87° S 02:52:20 10° E visible
31 May - 04:26:51 10° W 04:33:28 89° S 04:40:59 10° E visible
31 May - 06:14:38 10° W 06:21:31 53° NNW 06:28:53 10° NE visible
31 May - 08:03:53 10° W 08:09:02 20° NW 08:14:00 10° N daylight
31 May - 22:54:15 10° N 22:56:44 14° NE 22:59:37 10° ENE night (unlit)
01 Jun - 00:38:23 10° NW 00:43:29 53° NNE 00:49:36 10° E night (unlit)
01 Jun - 02:25:20 10° W 02:31:11 85° S 02:38:10 10° E visible
01 Jun - 04:12:54 10° W 04:19:22 89° NNW 04:26:48 10° ENE visible
01 Jun - 06:00:39 10° W 06:07:21 49° NNW 06:14:35 10° NE visible
01 Jun - 07:50:09 10° WNW 07:54:49 17° NW 07:59:17 10° N daylight
01 Jun - 22:39:51 10° N 22:42:38 16° NE 22:45:49 10° ENE night (unlit)
02 Jun - 00:24:23 10° NW 00:29:24 56° NNE 00:35:26 10° E night (unlit)
02 Jun - 02:11:25 10° W 02:17:08 83° S 02:23:58 10° E visible
02 Jun - 03:58:54 10° W 04:05:15 86° NNW 04:12:36 10° ENE visible
02 Jun - 05:46:39 10° W 05:53:10 45° NNW 06:00:14 10° NE visible
02 Jun - 07:36:33 10° WNW 07:40:36 15° NW 07:44:25 10° N daylight
02 Jun - 22:25:30 10° N 22:28:30 17° NE 22:31:56 10° E night (unlit)
03 Jun - 00:10:24 10° WNW 00:15:20 60° NNE 00:21:16 10° E night (unlit)
03 Jun - 01:57:28 10° W 02:03:04 82° S 02:09:46 10° E night (unlit)
03 Jun - 03:44:56 10° W 03:51:08 83° NNW 03:58:22 10° ENE visible
03 Jun - 05:32:41 10° W 05:38:58 41° NNW 05:45:51 10° NE visible
03 Jun - 07:23:07 10° WNW 07:26:22 13° NW 07:29:18 10° NNW daylight
03 Jun - 22:11:12 10° N 22:14:23 19° NE 22:17:59 10° E night (unlit)
03 Jun - 23:56:25 10° WNW 00:01:16 65° NNE 00:07:04 10° E night (unlit)
04 Jun - 01:43:32 10° W 01:48:59 81° S 01:55:33 10° E night (unlit)
04 Jun - 03:30:56 10° W 03:36:59 79° NNW 03:44:06 10° ENE visible
04 Jun - 05:18:43 10° W 05:24:45 37° NNW 05:31:24 10° NE visible
04 Jun - 07:10:09 10° WNW 07:12:08 11° NW 07:13:43 10° NNW daylight
04 Jun - 21:56:56 10° NNW 22:00:15 21° NE 22:04:00 10° E night (unlit)
04 Jun - 23:42:25 10° WNW 23:47:11 69° NNE 23:52:52 10° E night (unlit)
05 Jun - 01:29:34 10° W 01:34:54 81° S 01:41:19 10° E night (unlit)
05 Jun - 03:16:55 10° W 03:22:50 75° NNW 03:29:48 10° ENE visible
05 Jun - 05:04:45 10° W 05:10:32 34° NNW 05:16:54 10° NNE visible
05 Jun - 21:42:41 10° NNW 21:46:07 23° NE 21:49:59 10° E night (unlit)
05 Jun - 23:28:25 10° WNW 23:33:06 74° NNE 23:38:39 10° E night (unlit)
06 Jun - 01:15:36 10° W 01:20:48 80° S 01:27:05 10° E night (unlit)
06 Jun - 03:02:55 10° W 03:08:41 71° NNW 03:15:29 10° ENE visible
06 Jun - 04:50:48 10° W 04:56:18 30° NNW 05:02:20 10° NNE visible
06 Jun - 21:28:27 10° NNW 21:31:58 25° NNE 21:35:56 10° E night (unlit)
06 Jun - 23:14:25 10° WNW 23:19:00 78° NNE 23:24:26 10° E night (unlit)
07 Jun - 01:01:37 10° W 01:06:42 81° S 01:12:48 10° E night (unlit)
07 Jun - 02:48:54 10° W 02:54:30 66° NNW 03:01:08 10° ENE visible
07 Jun - 04:36:53 10° W 04:42:04 27° NNW 04:47:43 10° NNE visible
07 Jun - 21:14:14 10° NNW 21:17:50 28° NNE 21:21:51 10° E night (unlit)
07 Jun - 23:00:24 10° WNW 23:04:55 82° NNE 23:10:12 10° E night (unlit)
08 Jun - 00:47:37 10° W 00:52:35 82° S 00:58:32 10° E night (unlit)
08 Jun - 02:34:53 10° W 02:40:19 61° NNW 02:46:46 10° ENE visible
08 Jun - 04:23:00 10° W 04:27:49 23° NNW 04:33:02 10° NNE visible
08 Jun - 21:00:01 10° NNW 21:03:42 31° NNE 21:07:45 10° E night (unlit)
08 Jun - 22:46:23 10° WNW 22:50:48 86° NNE 22:55:58 10° E night (unlit)
09 Jun - 00:33:36 10° W 00:38:28 83° S 00:44:16 10° E night (unlit)
09 Jun - 02:20:51 10° W 02:26:07 56° NNW 02:32:22 10° NE night (unlit)
09 Jun - 04:09:09 10° W 04:13:33 20° NNW 04:18:15 10° N visible
09 Jun - 20:45:47 10° NW 20:49:33 34° NNE 20:53:38 10° E night (unlit)
09 Jun - 22:32:19 10° W 22:36:41 90° WSW 22:41:43 10° E night (unlit)
